When you browse on this site, cookies collect data to enhance your experience and personalize the content and advertising you see.
Visit our Privacy Policy to learn more. By continuing to use the site, you agree to this use of cookies and data.
  • In Hungary
  • List of Countries
  • For 7 days
  • Water Temperature
  • Satellite Maps
  • Weather Map
  • News
  • Weather Widgets
  • user-avatar
    Login

    Hourly Weather Kaithal

    Today, 20 July, Saturday

    Time Temperature Precipitation Wind Pressure Humidity
    00:00 +33°C° 0 mm 1 mps 731 mmHg 55%
    01:00 +32°C° 0 mm 1 mps 731 mmHg 57%
    02:00 +32°C° 0 mm 1 mps 731 mmHg 58%
    03:00 +32°C° 0.1 mm 1 mps 731 mmHg 59%
    04:00 +31°C° 0.1 mm 2 mps 731 mmHg 61%
    05:00 +31°C° 0 mm 1 mps 731 mmHg 65%
    06:00 +32°C° 0.2 mm 2 mps 731 mmHg 62%
    07:00 +34°C° 0.2 mm 2 mps 732 mmHg 59%
    08:00 +35°C° 0.2 mm 2 mps 732 mmHg 56%
    09:00 +37°C° 0 mm 2 mps 732 mmHg 50%
    10:00 +38°C° 0 mm 2 mps 732 mmHg 45%
    11:00 +39°C° 0 mm 3 mps 732 mmHg 39%
    12:00 +40°C° 0 mm 3 mps 732 mmHg 37%
    13:00 +41°C° 0 mm 2 mps 731 mmHg 34%
    14:00 +42°C° 0 mm 2 mps 731 mmHg 32%
    15:00 +41°C° 0 mm 2 mps 731 mmHg 33%
    16:00 +41°C° 0 mm 2 mps 730 mmHg 34%
    17:00 +40°C° 0 mm 2 mps 730 mmHg 38%
    18:00 +39°C° 0 mm 2 mps 730 mmHg 41%
    19:00 +38°C° 0 mm 2 mps 730 mmHg 43%
    20:00 +38°C° 0 mm 3 mps 731 mmHg 46%
    21:00 +37°C° 0.2 mm 3 mps 731 mmHg 49%
    22:00 +36°C° 0.2 mm 3 mps 731 mmHg 52%
    23:00 +36°C° 0.2 mm 2 mps 731 mmHg 54%

    Tomorrow, 21 July, Sunday

    Time Temperature Precipitation Wind Pressure Humidity
    00:00 +35°C° 0.1 mm 2 mps 730 mmHg 55%
    01:00 +35°C° 0.1 mm 2 mps 730 mmHg 56%
    02:00 +35°C° 0.1 mm 2 mps 730 mmHg 57%
    03:00 +34°C° 0.5 mm 2 mps 730 mmHg 60%
    04:00 +32°C° 0.5 mm 2 mps 730 mmHg 63%
    05:00 +32°C° 0.5 mm 2 mps 730 mmHg 66%
    06:00 +34°C° 0.5 mm 3 mps 730 mmHg 62%
    07:00 +35°C° 0.5 mm 3 mps 731 mmHg 58%
    08:00 +36°C° 0.5 mm 4 mps 732 mmHg 54%
    09:00 +37°C° 0 mm 4 mps 732 mmHg 49%
    10:00 +39°C° 0 mm 3 mps 731 mmHg 44%
    11:00 +40°C° 0 mm 3 mps 731 mmHg 39%
    12:00 +42°C° 0 mm 3 mps 731 mmHg 38%
    13:00 +42°C° 0 mm 3 mps 731 mmHg 38%
    14:00 +42°C° 0 mm 3 mps 730 mmHg 38%
    15:00 +41°C° 0 mm 2 mps 730 mmHg 37%
    16:00 +41°C° 0 mm 2 mps 729 mmHg 36%
    17:00 +41°C° 0 mm 1 mps 729 mmHg 36%
    18:00 +40°C° 0 mm 1 mps 729 mmHg 39%
    19:00 +39°C° 0 mm 1 mps 729 mmHg 43%
    20:00 +37°C° 0 mm 1 mps 729 mmHg 47%
    21:00 +36°C° 0 mm 1 mps 729 mmHg 48%
    22:00 +34°C° 0 mm 0 mps 729 mmHg 49%
    23:00 +34°C° 0 mm 0 mps 729 mmHg 51%

    Day after tomorrow, 22 July, Monday

    Time Temperature Precipitation Wind Pressure Humidity
    00:00 +33°C° 0 mm 0 mps 729 mmHg 52%
    01:00 +33°C° 0 mm 0 mps 729 mmHg 52%
    02:00 +33°C° 0 mm 0 mps 728 mmHg 53%
    03:00 +34°C° 0 mm 1 mps 728 mmHg 54%
    04:00 +34°C° 0 mm 1 mps 728 mmHg 55%
    05:00 +34°C° 0 mm 2 mps 728 mmHg 56%
    06:00 +36°C° 0 mm 2 mps 729 mmHg 52%
    07:00 +37°C° 0 mm 2 mps 729 mmHg 49%
    08:00 +38°C° 0 mm 2 mps 730 mmHg 46%
    09:00 +39°C° 0 mm 2 mps 730 mmHg 43%
    10:00 +40°C° 0 mm 2 mps 730 mmHg 40%
    11:00 +41°C° 0 mm 2 mps 730 mmHg 37%
    12:00 +42°C° 0 mm 2 mps 729 mmHg 34%
    13:00 +43°C° 0 mm 2 mps 729 mmHg 32%
    14:00 +43°C° 0 mm 1 mps 728 mmHg 30%
    15:00 +43°C° 0 mm 2 mps 728 mmHg 31%
    16:00 +42°C° 0 mm 2 mps 727 mmHg 33%
    17:00 +42°C° 0 mm 2 mps 727 mmHg 35%
    18:00 +41°C° 0 mm 2 mps 727 mmHg 37%
    19:00 +40°C° 0 mm 1 mps 728 mmHg 39%
    20:00 +36°C° 0 mm 0 mps 728 mmHg 41%
    21:00 +36°C° 0 mm 0 mps 728 mmHg 42%
    22:00 +37°C° 0 mm 1 mps 728 mmHg 43%
    23:00 +37°C° 0 mm 1 mps 728 mmHg 44%

    23 July, Tuesday

    Time Temperature Precipitation Wind Pressure Humidity
    00:00 +36°C° 0.1 mm 1 mps 728 mmHg 46%
    01:00 +36°C° 0.1 mm 1 mps 728 mmHg 47%
    02:00 +36°C° 0.1 mm 1 mps 728 mmHg 48%
    03:00 +35°C° 0.2 mm 1 mps 728 mmHg 50%
    04:00 +35°C° 0.2 mm 2 mps 728 mmHg 52%
    05:00 +35°C° 0.2 mm 2 mps 728 mmHg 54%
    06:00 +36°C° 0 mm 2 mps 728 mmHg 50%
    07:00 +38°C° 0 mm 2 mps 729 mmHg 46%
    08:00 +39°C° 0 mm 2 mps 729 mmHg 43%
    09:00 +41°C° 0 mm 2 mps 729 mmHg 39%
    10:00 +42°C° 0 mm 2 mps 729 mmHg 35%
    11:00 +43°C° 0 mm 1 mps 729 mmHg 30%
    12:00 +43°C° 0 mm 2 mps 728 mmHg 31%
    13:00 +43°C° 0 mm 2 mps 728 mmHg 31%
    14:00 +43°C° 0 mm 2 mps 727 mmHg 31%
    15:00 +43°C° 0 mm 2 mps 727 mmHg 31%
    16:00 +43°C° 0 mm 2 mps 726 mmHg 31%
    17:00 +43°C° 0 mm 2 mps 726 mmHg 32%
    18:00 +42°C° 0 mm 2 mps 726 mmHg 34%
    19:00 +40°C° 0 mm 2 mps 726 mmHg 37%
    20:00 +39°C° 0 mm 2 mps 726 mmHg 39%
    21:00 +39°C° 0 mm 1 mps 727 mmHg 40%
    22:00 +39°C° 0 mm 1 mps 727 mmHg 41%
    23:00 +35°C° 0 mm 0 mps 727 mmHg 42%

    24 July, Wednesday

    Time Temperature Precipitation Wind Pressure Humidity
    00:00 +35°C° 0 mm 0 mps 727 mmHg 43%
    01:00 +34°C° 0 mm 0 mps 727 mmHg 44%
    02:00 +34°C° 0 mm 0 mps 727 mmHg 46%
    03:00 +36°C° 0 mm 1 mps 727 mmHg 47%
    04:00 +36°C° 0 mm 2 mps 727 mmHg 49%
    05:00 +36°C° 0 mm 3 mps 727 mmHg 51%
    06:00 +36°C° 0.1 mm 3 mps 727 mmHg 56%
    07:00 +36°C° 0.1 mm 4 mps 728 mmHg 60%
    08:00 +35°C° 0.1 mm 4 mps 728 mmHg 65%
    09:00 +37°C° 0 mm 4 mps 728 mmHg 59%
    10:00 +38°C° 0 mm 3 mps 728 mmHg 53%
    11:00 +39°C° 0 mm 2 mps 728 mmHg 47%
    12:00 +40°C° 0 mm 2 mps 728 mmHg 43%
    13:00 +41°C° 0 mm 1 mps 727 mmHg 38%
    14:00 +42°C° 0 mm 1 mps 727 mmHg 34%
    15:00 +42°C° 0 mm 1 mps 726 mmHg 34%
    16:00 +42°C° 0 mm 2 mps 726 mmHg 34%
    17:00 +42°C° 0 mm 2 mps 725 mmHg 34%
    18:00 +40°C° 0 mm 3 mps 726 mmHg 43%
    19:00 +37°C° 0 mm 4 mps 726 mmHg 53%
    20:00 +35°C° 0 mm 6 mps 726 mmHg 62%
    21:00 +34°C° 0 mm 6 mps 726 mmHg 65%
    22:00 +34°C° 0 mm 6 mps 726 mmHg 68%
    23:00 +33°C° 0 mm 6 mps 727 mmHg 70%

    25 July, Thursday

    Time Temperature Precipitation Wind Pressure Humidity
    00:00 +33°C° 0.2 mm 6 mps 727 mmHg 71%
    01:00 +32°C° 0.2 mm 6 mps 727 mmHg 72%
    02:00 +32°C° 0.2 mm 7 mps 727 mmHg 73%
    03:00 +32°C° 0.3 mm 6 mps 727 mmHg 74%
    04:00 +30°C° 0.3 mm 6 mps 727 mmHg 75%
    05:00 +30°C° 0.3 mm 5 mps 727 mmHg 76%
    06:00 +30°C° 0 mm 5 mps 727 mmHg 77%
    07:00 +30°C° 0 mm 5 mps 728 mmHg 77%
    08:00 +30°C° 0 mm 6 mps 728 mmHg 78%
    09:00 +33°C° 0 mm 6 mps 728 mmHg 72%
    10:00 +35°C° 0 mm 6 mps 729 mmHg 66%
    11:00 +36°C° 0 mm 6 mps 729 mmHg 60%
    12:00 +36°C° 0.1 mm 6 mps 729 mmHg 62%
    13:00 +35°C° 0.1 mm 7 mps 729 mmHg 64%
    14:00 +35°C° 0.1 mm 7 mps 728 mmHg 65%
    15:00 +34°C° 0.5 mm 7 mps 728 mmHg 68%
    16:00 +33°C° 0.5 mm 7 mps 728 mmHg 71%
    17:00 +32°C° 0.5 mm 6 mps 728 mmHg 73%
    18:00 +32°C° 1 mm 6 mps 728 mmHg 76%
    19:00 +30°C° 1 mm 6 mps 728 mmHg 79%
    20:00 +29°C° 1 mm 5 mps 728 mmHg 82%
    21:00 +29°C° 1.4 mm 5 mps 728 mmHg 83%
    22:00 +29°C° 1.4 mm 5 mps 729 mmHg 84%
    23:00 +29°C° 1.4 mm 5 mps 729 mmHg 85%
    Show more